sat.trackr.live / text

‹ back to catalog

STARLINK-31535

NORAD 59504 · 2024-071W

PAYLOAD ACTIVE UNKNOWN

§ Identity

Operator
Country
US
Launch date
2024-04-13
Launch site
AFETR
Launch vehicle
Mass (kg)
RCS (m²)

Purposes: comms

External: N2YO · Heavens-Above · Gunter

§ Orbital elements

Epoch: 2026-09-21T05:54:33.880608Z

Period
94.27 min
Inclination
43.0043°
Eccentricity
0.0001287
Mean motion
15.27577083 rev/d
Perigee alt
482.2 km
Apogee alt
483.9 km
Semi-major
6,861.2 km
B*
1.4059e-5
RAAN
323.1128°
Arg perigee
260.2549°
Mean anomaly
99.8158°
Rev number
13,802

§ Raw data

STARLINK-315351 59504U 24071W   26264.24622547  .00000125  00000+0  14059-4 0  99992 59504  43.0043 323.1128 0001287 260.2549  99.8158 15.27577083138024

JSON: /api/v1/satellites/59504 · /tle

For live sub-satellite position, see the globe view (requires WebGL).

§ Visibility from observer

Set your observer location to see the next 7 days of passes ≥ 10°. The values pass through the URL so the page stays shareable.

No JS? Fill the form by hand. The geolocation button needs JavaScript.